Погода в Кубее

Украина / Одесская область     45°47′37″N   28°44′27″E
темп.,
°C
ветер,
м/с
пор.,
м/с
влажн.,
%
обл.,
%
осадки,
мм/ч
давл.,
гПа
погр.,
м
13 августа, сб
сб1300:00+21ссз59713 0.0 1012232
03:00+21ссз7127288 0.0 1012366
06:00+21с61176100 0.0 1011380
09:00+22с697093 0.0 1011466
12:00+30с44422 0.0 10091645
15:00+30с4437100 0.0 10081845
18:00+29всв4446100 0.0 1008814
21:00+25ссв225758 0.0 100817
14 августа, вс
вс1400:00+22юз116757 0.0 100711
03:00+21сз34696 0.0 100654
06:00+19ссв33800 0.0 100647
09:00+25св33610 0.0 1006546
12:00+30св33340 0.0 10051825
15:00+34в34236 0.0 10043342
18:00+32вюв762751 0.0 10031007
21:00+25всв35535 0.1 100581
15 августа, пн
пн1500:00+22юв34760 0.0 100570
03:00+20ссв22825 0.0 100514
06:00+20ссв2280100 0.0 100523
09:00+24юв2260100 0.0 1005446
12:00+28ю2241100 0.0 10051452
15:00+30ююв1135100 0.0 10051933
18:00+31св2230100 0.0 10042114
21:00+22ююз597565 0.5 1005226
16 августа, вт
вт1600:00+20зюз36795 0.2 1006111
03:00+19ю3384100 0.3 100667
06:00+19юз228352 0.0 100642
09:00+25юз2257100 0.0 1007436
12:00+30зюз33375 0.0 10071473
15:00+33юз322617 0.0 10063045
18:00+34зюз4324100 0.0 10062903
21:00+25с71254100 0.2 1008426
17 августа, ср
ср1700:00+21ссв358026 0.2 1009120
03:00+21ссз337923 0.2 100841
06:00+21сз22725 0.0 100817
09:00+26ссз234913 0.0 1009456
12:00+31сз33355 0.0 10091847
15:00+33сз3428100 0.0 10073174
18:00+32с333115 0.1 1007846
21:00+26зюз35505 0.4 100981